Location: Martin Dies, Jr. State Park
(30.8429°N, 94.1720°W)
Time: 02:14:38
(UTC-06:00)

ISS - Visible Passes

Search period start: 14 November 2019 00:00
Search period end: 24 November 2019 00:00
Orbit: 412 x 421 km, 51.6° (Epoch: 14 November)

Date Brightness Start Highest point End Pass type
(mag) Time Alt. Az. Time Alt. Az. Time Alt. Az.
14 Nov -0.3 04:14:24 11° E 04:14:24 11° E 04:14:39 10° E visible
14 Nov -2.9 05:47:21 20° W 05:49:02 33° SW 05:52:05 10° SSE visible
15 Nov -3.0 05:01:33 47° SSE 05:01:33 47° SSE 05:04:04 10° SE visible
17 Nov -1.5 18:24:38 10° SSE 18:25:35 12° SE 18:25:35 12° SE visible
18 Nov -2.1 19:10:45 10° SW 19:12:41 32° SW 19:12:41 32° SW visible
19 Nov -3.3 18:22:31 10° SSW 18:25:42 44° SE 18:26:45 32° E visible
20 Nov -1.7 19:11:14 10° W 19:13:38 24° NW 19:13:38 24° NW visible
21 Nov -2.9 18:22:17 10° WSW 18:25:29 44° NW 18:27:30 20° NNE visible
23 Nov -1.2 18:23:20 10° WNW 18:25:28 16° NW 18:27:37 10° N visible
